| time (UTC) | temp F | wind direction | speed MPH | gust MPH | rain 1hr in | rain 24hr in | rain mn in | humidity % | barometer mb |
| 20260504173057 | 69 | 300 | 0.0 | 3.0 | 0.00 | 0.00 | 0.00 | 58 | 1011.2 |
| 20260504171554 | 69 | 325 | 2.0 | 4.0 | 0.00 | 0.00 | 0.00 | 57 | 1011.1 |
| 20260504081540 | 69 | 14 | 1.0 | 8.0 | 0.00 | 0.00 | 0.00 | 62 | 1012.7 |
| 20260504050010 | 57 | 185 | 1.0 | 2.0 | 0.00 | 0.00 | 0.00 | 85 | 1011.6 |
| 20260504044521 | 57 | 185 | 0.0 | 0.0 | 0.00 | 0.00 | 0.00 | 85 | 1011.4 |
| 20260504043006 | 57 | 185 | 0.0 | 1.0 | 0.00 | 0.00 | 0.00 | 84 | 1011.4 |
| 20260504041502 | 57 | 185 | 0.0 | 2.0 | 0.00 | 0.00 | 0.00 | 84 | 1011.2 |
| 20260504040003 | 57 | 215 | 0.0 | 0.0 | 0.00 | 0.00 | 0.00 | 83 | 1011.0 |
| 20260504034614 | 57 | 215 | 0.0 | 2.0 | 0.00 | 0.00 | 0.00 | 82 | 1010.9 |
| 20260504033056 | 58 | 215 | 0.0 | 0.0 | 0.00 | 0.00 | 0.00 | 79 | 1010.9 |
| 20260504031554 | 59 | 215 | 0.0 | 0.0 | 0.00 | 0.00 | 0.00 | 75 | 1011.1 |
| 20260504030052 | 59 | 215 | 0.0 | 0.0 | 0.00 | 0.00 | 0.00 | 70 | 1011.2 |
| 20260504024548 | 59 | 215 | 0.0 | 0.0 | 0.00 | 0.00 | 0.00 | 67 | 1011.2 |
| 20260504023046 | 60 | 215 | 0.0 | 0.0 | 0.00 | 0.00 | 0.00 | 66 | 1011.2 |
| 20260504021545 | 60 | 215 | 0.0 | 0.0 | 0.00 | 0.00 | 0.00 | 64 | 1011.4 |
| 20260504020043 | 60 | 215 | 0.0 | 2.0 | 0.00 | 0.00 | 0.00 | 64 | 1011.3 |
| 20260504014558 | 60 | 215 | 0.0 | 1.0 | 0.00 | 0.00 | 0.00 | 62 | 1011.1 |
| 20260504013038 | 61 | 215 | 0.0 | 1.0 | 0.00 | 0.00 | 0.00 | 61 | 1011.1 |
| 20260504011534 | 63 | 215 | 0.0 | 2.0 | 0.00 | 0.00 | 0.00 | 58 | 1010.8 |
| 20260504010033 | 64 | 271 | 0.0 | 3.0 | 0.00 | 0.00 | 0.00 | 55 | 1010.7 |
| 20260504004532 | 65 | 269 | 0.0 | 1.0 | 0.00 | 0.00 | 0.00 | 51 | 1010.6 |
| 20260504003030 | 66 | 264 | 0.0 | 3.0 | 0.00 | 0.00 | 0.00 | 49 | 1010.6 |
| 20260504001530 | 67 | 289 | 1.0 | 4.0 | 0.00 | 0.00 | 0.00 | 48 | 1010.7 |
| 20260504000029 | 67 | 296 | 1.0 | 7.0 | 0.00 | 0.00 | 0.00 | 47 | 1010.6 |
| 20260503234544 | 68 | 311 | 2.0 | 8.0 | 0.00 | 0.00 | 0.00 | 44 | 1010.7 |
| 20260503233027 | 68 | 303 | 2.0 | 7.0 | 0.00 | 0.00 | 0.00 | 44 | 1010.6 |
| 20260503231528 | 69 | 251 | 2.0 | 7.0 | 0.00 | 0.00 | 0.00 | 43 | 1010.6 |
| 20260503230034 | 69 | 248 | 2.0 | 7.0 | 0.00 | 0.00 | 0.00 | 43 | 1010.4 |
| 20260503224525 | 70 | 288 | 2.0 | 8.0 | 0.00 | 0.00 | 0.00 | 43 | 1010.5 |
| 20260503223023 | 70 | 272 | 4.0 | 12.0 | 0.00 | 0.00 | 0.00 | 43 | 1010.6 |
| 20260503221522 | 69 | 275 | 3.0 | 15.0 | 0.00 | 0.00 | 0.00 | 45 | 1010.4 |
| 20260503220035 | 64 | 269 | 3.0 | 9.0 | 0.00 | 0.00 | 0.00 | 55 | 1010.2 |
| 20260503214513 | 63 | 290 | 0.0 | 1.0 | 0.00 | 0.00 | 0.00 | 65 | 1010.4 |
| 20260503213011 | 64 | 290 | 0.0 | 0.0 | 0.00 | 0.00 | 0.00 | 63 | 1010.1 |
| 20260503211509 | 65 | 290 | 0.0 | 1.0 | 0.00 | 0.00 | 0.00 | 61 | 1010.2 |
| 20260503210009 | 66 | 290 | 0.0 | 0.0 | 0.00 | 0.00 | 0.00 | 56 | 1010.0 |
| 20260503204509 | 67 | 290 | 0.0 | 0.0 | 0.00 | 0.00 | 0.00 | 54 | 1010.0 |
| 20260503203018 | 68 | 290 | 0.0 | 0.0 | 0.00 | 0.00 | 0.00 | 49 | 1010.1 |
| 20260503201506 | 69 | 290 | 0.0 | 2.0 | 0.00 | 0.00 | 0.00 | 46 | 1009.8 |
| 20260503200007 | 70 | 265 | 0.0 | 5.0 | 0.00 | 0.00 | 0.00 | 46 | 1010.0 |
| 20260503194506 | 69 | 263 | 1.0 | 4.0 | 0.00 | 0.00 | 0.00 | 46 | 1009.9 |
| 20260503193006 | 67 | 281 | 1.0 | 6.0 | 0.00 | 0.00 | 0.00 | 51 | 1010.0 |
| 20260503191510 | 67 | 169 | 0.0 | 0.0 | 0.00 | 0.00 | 0.00 | 57 | 1009.7 |
| 20260503190002 | 68 | 169 | 0.0 | 0.0 | 0.00 | 0.00 | 0.00 | 55 | 1009.7 |
| 20260503184502 | 69 | 169 | 0.0 | 0.0 | 0.00 | 0.00 | 0.00 | 53 | 1009.5 |
| 20260503183001 | 70 | 169 | 0.0 | 0.0 | 0.00 | 0.00 | 0.00 | 52 | 1009.4 |
| 20260503181611 | 71 | 169 | 0.0 | 0.0 | 0.00 | 0.00 | 0.00 | 48 | 1009.3 |
| 20260503180100 | 72 | 169 | 0.0 | 0.0 | 0.00 | 0.00 | 0.00 | 47 | 1009.3 |
| 20260503174559 | 74 | 169 | 0.0 | 0.0 | 0.00 | 0.00 | 0.00 | 44 | 1009.3 |